| time (UTC) | temp F | wind direction | speed knots | gust knots | rain 1hr in | rain 24hr in | rain mn in | humidity % | barometer mb |
| 20260903185318 | 84 | 229 | 4.3 | 7.0 | 0.00 | 0.20 | 0.20 | 77 | 1014.2 |
| 20260903184355 | 83 | 292 | 2.6 | 8.7 | 0.00 | 0.20 | 0.20 | 74 | 1014.3 |
| 20260903183353 | 83 | 213 | 0.9 | 7.8 | 0.00 | 0.20 | 0.20 | 78 | 1014.4 |
| 20260903182336 | 81 | 166 | 3.5 | 5.2 | 0.00 | 0.20 | 0.20 | 81 | 1014.3 |
| 20260903181314 | 80 | 219 | 1.7 | 4.3 | 0.00 | 0.20 | 0.20 | 84 | 1014.7 |
| 20260903180337 | 78 | 223 | 1.7 | 4.3 | 0.00 | 0.20 | 0.20 | 85 | 1014.9 |
| 20260903175351 | 78 | 222 | 2.6 | 4.3 | 0.00 | 0.20 | 0.20 | 85 | 1015.0 |
| 20260903174332 | 78 | 227 | 1.7 | 5.2 | 0.00 | 0.20 | 0.20 | 84 | 1015.0 |
| 20260903173339 | 78 | 194 | 4.3 | 7.0 | 0.00 | 0.20 | 0.20 | 85 | 1015.1 |
| 20260903172326 | 78 | 260 | 4.3 | 7.8 | 0.00 | 0.20 | 0.20 | 86 | 1015.2 |
| 20260903171317 | 77 | 170 | 2.6 | 6.1 | 0.00 | 0.20 | 0.20 | 89 | 1015.4 |
| 20260903170350 | 75 | 196 | 2.6 | 5.2 | 0.00 | 0.20 | 0.20 | 91 | 1015.4 |
| 20260903165327 | 74 | 169 | 1.7 | 3.5 | 0.00 | 0.29 | 0.20 | 90 | 1015.4 |
| 20260903164333 | 74 | 227 | 2.6 | 4.3 | 0.00 | 0.29 | 0.20 | 90 | 1015.8 |
| 20260903163334 | 74 | 202 | 0.9 | 3.5 | 0.00 | 0.29 | 0.20 | 91 | 1016.1 |
| 20260903162334 | 73 | 221 | 1.7 | 3.5 | 0.00 | 0.29 | 0.20 | 90 | 1016.3 |
| 20260903161336 | 74 | 248 | 1.7 | 3.5 | 0.00 | 0.29 | 0.20 | 91 | 1016.5 |
| 20260903160322 | 73 | 313 | 2.6 | 3.5 | 0.00 | 0.29 | 0.20 | 92 | 1016.7 |
| 20260903155330 | 72 | 329 | 0.9 | 1.7 | 0.00 | 0.29 | 0.20 | 94 | 1016.4 |
| 20260903154334 | 72 | 134 | 0.9 | 2.6 | 0.10 | 0.29 | 0.20 | 94 | 1016.7 |
| 20260903153314 | 71 | 134 | 0.0 | 1.7 | 0.18 | 0.29 | 0.20 | 94 | 1016.7 |
| 20260903152328 | 71 | 134 | 0.9 | 1.7 | 0.18 | 0.29 | 0.20 | 93 | 1016.9 |
| 20260903151315 | 70 | 140 | 2.6 | 3.5 | 0.18 | 0.29 | 0.20 | 93 | 1016.8 |
| 20260903150332 | 70 | 95 | 0.9 | 1.7 | 0.18 | 0.29 | 0.20 | 92 | 1017.4 |
| 20260903145315 | 71 | 78 | 2.6 | 6.1 | 0.17 | 0.28 | 0.19 | 91 | 1017.5 |
| 20260903144329 | 72 | 44 | 3.5 | 15.6 | 0.08 | 0.19 | 0.10 | 92 | 1018.2 |
| 20260903143326 | 73 | 340 | 7.8 | 15.6 | 0.00 | 0.11 | 0.02 | 93 | 1018.6 |
| 20260903142334 | 73 | 123 | 0.9 | 5.2 | 0.00 | 0.11 | 0.02 | 93 | 1016.5 |
| 20260903141337 | 73 | 124 | 3.5 | 9.6 | 0.00 | 0.11 | 0.02 | 93 | 1016.6 |
| 20260903140333 | 73 | 247 | 4.3 | 10.4 | 0.00 | 0.11 | 0.02 | 93 | 1017.4 |
| 20260903135334 | 74 | 249 | 2.6 | 5.2 | 0.00 | 0.11 | 0.02 | 93 | 1016.6 |
| 20260903134336 | 74 | 141 | 2.6 | 4.3 | 0.00 | 0.11 | 0.02 | 93 | 1015.6 |
| 20260903133332 | 73 | 161 | 2.6 | 7.8 | 0.00 | 0.11 | 0.02 | 93 | 1015.8 |
| 20260903132335 | 73 | 236 | 3.5 | 8.7 | 0.00 | 0.11 | 0.02 | 94 | 1016.5 |
| 20260903131316 | 73 | 166 | 1.7 | 7.8 | 0.02 | 0.11 | 0.02 | 94 | 1016.3 |
| 20260903130317 | 73 | 202 | 2.6 | 4.3 | 0.02 | 0.11 | 0.02 | 93 | 1016.1 |
| 20260903125318 | 73 | 199 | 2.6 | 5.2 | 0.02 | 0.11 | 0.02 | 93 | 1016.5 |
| 20260903124325 | 73 | 219 | 1.7 | 3.5 | 0.02 | 0.11 | 0.02 | 92 | 1016.7 |
| 20260903123333 | 73 | 46 | 0.9 | 2.6 | 0.02 | 0.11 | 0.02 | 91 | 1016.6 |
| 20260903122337 | 73 | 330 | 1.7 | 3.5 | 0.02 | 0.11 | 0.02 | 91 | 1017.2 |
| 20260903121313 | 73 | 145 | 2.6 | 5.2 | 0.00 | 0.09 | 0.00 | 90 | 1016.8 |
| 20260903120317 | 73 | 123 | 2.6 | 4.3 | 0.00 | 0.09 | 0.00 | 90 | 1016.6 |
| 20260903115314 | 73 | 235 | 2.6 | 6.1 | 0.00 | 0.09 | 0.00 | 90 | 1017.1 |
| 20260903114312 | 72 | 159 | 1.7 | 4.3 | 0.00 | 0.09 | 0.00 | 90 | 1017.0 |
| 20260903113323 | 72 | 106 | 1.7 | 5.2 | 0.00 | 0.09 | 0.00 | 91 | 1016.8 |
| 20260903112333 | 72 | 42 | 2.6 | 8.7 | 0.00 | 0.09 | 0.00 | 92 | 1016.7 |
| 20260903111336 | 72 | 351 | 2.6 | 7.0 | 0.00 | 0.09 | 0.00 | 92 | 1016.5 |
| 20260903110315 | 72 | 105 | 1.7 | 3.5 | 0.00 | 0.09 | 0.00 | 93 | 1016.6 |
| 20260903105338 | 72 | 360 | 0.0 | 3.5 | 0.00 | 0.09 | 0.00 | 93 | 1016.9 |
| 20260903104313 | 72 | 351 | 1.7 | 5.2 | 0.00 | 0.09 | 0.00 | 93 | 1016.8 |
| 20260903103324 | 72 | 96 | 3.5 | 7.8 | 0.00 | 0.09 | 0.00 | 93 | 1016.5 |
| 20260903102340 | 72 | 119 | 2.6 | 7.8 | 0.00 | 0.09 | 0.00 | 93 | 1016.8 |
| 20260903101317 | 72 | 5 | 4.3 | 7.8 | 0.00 | 0.09 | 0.00 | 93 | 1016.8 |
| 20260903100315 | 72 | 351 | 2.6 | 5.2 | 0.00 | 0.09 | 0.00 | 93 | 1016.8 |
| 20260903095334 | 72 | 342 | 3.5 | 4.3 | 0.00 | 0.09 | 0.00 | 93 | 1016.7 |
| 20260903094313 | 72 | 24 | 1.7 | 8.7 | 0.00 | 0.09 | 0.00 | 92 | 1016.0 |
| 20260903093334 | 72 | 130 | 4.3 | 7.0 | 0.00 | 0.09 | 0.00 | 92 | 1015.6 |
| 20260903092322 | 72 | 117 | 5.2 | 8.7 | 0.00 | 0.09 | 0.00 | 92 | 1015.5 |
| 20260903091356 | 72 | 132 | 0.9 | 2.6 | 0.00 | 0.09 | 0.00 | 91 | 1015.7 |
| 20260903090340 | 72 | 104 | 0.9 | 3.5 | 0.00 | 0.09 | 0.00 | 91 | 1015.6 |
| 20260903085319 | 73 | 17 | 1.7 | 6.1 | 0.00 | 0.09 | 0.00 | 91 | 1015.8 |
| 20260903084403 | 73 | 92 | 2.6 | 7.8 | 0.00 | 0.09 | 0.00 | 91 | 1015.6 |
| 20260903083334 | 73 | 178 | 0.9 | 2.6 | 0.00 | 0.09 | 0.00 | 91 | 1015.2 |
| 20260903082338 | 73 | 146 | 1.7 | 3.5 | 0.00 | 0.09 | 0.00 | 91 | 1015.1 |
| 20260903081318 | 73 | 316 | 0.9 | 2.6 | 0.00 | 0.09 | 0.00 | 91 | 1015.1 |
| 20260903080342 | 73 | 129 | 0.9 | 2.6 | 0.00 | 0.09 | 0.00 | 92 | 1014.8 |
| 20260903075316 | 73 | 167 | 0.9 | 3.5 | 0.00 | 0.09 | 0.00 | 92 | 1014.7 |
| 20260903074338 | 73 | 203 | 1.7 | 4.3 | 0.00 | 0.09 | 0.00 | 91 | 1014.8 |
| 20260903073316 | 72 | 140 | 1.7 | 7.0 | 0.00 | 0.09 | 0.00 | 91 | 1014.9 |
| 20260903072338 | 72 | 148 | 1.7 | 3.5 | 0.00 | 0.09 | 0.00 | 91 | 1015.1 |
| 20260903071319 | 72 | 111 | 2.6 | 3.5 | 0.00 | 0.09 | 0.00 | 91 | 1015.0 |
| 20260903070318 | 73 | 32 | 0.0 | 1.7 | 0.00 | 0.09 | 0.00 | 90 | 1015.2 |
| 20260903065335 | 73 | 32 | 0.9 | 1.7 | 0.00 | 0.09 | 0.00 | 90 | 1015.2 |
| 20260903064338 | 73 | 32 | 0.0 | 0.9 | 0.00 | 0.09 | 0.00 | 89 | 1015.2 |
| 20260903063327 | 73 | 32 | 0.9 | 1.7 | 0.00 | 0.09 | 0.00 | 89 | 1015.0 |
| 20260903062324 | 74 | 32 | 0.9 | 1.7 | 0.00 | 0.09 | 0.00 | 89 | 1014.9 |
| 20260903061338 | 74 | 32 | 0.9 | 1.7 | 0.00 | 0.09 | 0.00 | 89 | 1014.8 |
| 20260903060317 | 74 | 32 | 0.0 | 1.7 | 0.00 | 0.09 | 0.00 | 88 | 1014.6 |
| 20260903055317 | 74 | 19 | 1.7 | 2.6 | 0.00 | 0.09 | 0.00 | 88 | 1014.6 |
| 20260903054341 | 74 | 225 | 0.0 | 0.9 | 0.00 | 0.09 | 0.00 | 87 | 1014.5 |
| 20260903053339 | 75 | 225 | 0.0 | 3.5 | 0.00 | 0.09 | 0.00 | 86 | 1014.5 |
| 20260903052319 | 75 | 184 | 2.6 | 3.5 | 0.00 | 0.09 | 0.00 | 86 | 1014.7 |
| 20260903051317 | 75 | 182 | 1.7 | 3.5 | 0.00 | 0.09 | 0.00 | 86 | 1014.7 |
| 20260903050318 | 75 | 165 | 1.7 | 2.6 | 0.00 | 0.09 | 0.00 | 86 | 1014.9 |
| 20260903045356 | 75 | 200 | 0.0 | 1.7 | 0.00 | 0.09 | 0.00 | 85 | 1015.1 |
| 20260903044339 | 75 | 200 | 0.9 | 2.6 | 0.00 | 0.09 | 0.00 | 84 | 1015.0 |
| 20260903043340 | 75 | 198 | 0.9 | 3.5 | 0.00 | 0.09 | 0.00 | 84 | 1014.9 |
| 20260903042319 | 75 | 147 | 3.5 | 6.1 | 0.00 | 0.09 | 0.00 | 84 | 1015.2 |
| 20260903041318 | 75 | 170 | 1.7 | 4.3 | 0.00 | 0.09 | 0.00 | 84 | 1015.5 |
| 20260903040318 | 75 | 215 | 0.9 | 6.1 | 0.00 | 0.09 | 0.00 | 85 | 1015.6 |
| 20260903035320 | 75 | 175 | 1.7 | 5.2 | 0.00 | 0.09 | 0.09 | 85 | 1015.6 |
| 20260903034317 | 75 | 138 | 5.2 | 9.6 | 0.00 | 0.09 | 0.09 | 85 | 1015.8 |
| 20260903033339 | 74 | 133 | 4.3 | 8.7 | 0.00 | 0.09 | 0.09 | 86 | 1016.0 |
| 20260903032338 | 74 | 136 | 3.5 | 7.0 | 0.00 | 0.09 | 0.09 | 86 | 1015.9 |
| 20260903031319 | 74 | 165 | 2.6 | 4.3 | 0.00 | 0.09 | 0.09 | 85 | 1015.6 |
| 20260903030316 | 75 | 157 | 2.6 | 4.3 | 0.00 | 0.09 | 0.09 | 85 | 1015.4 |
| 20260903025318 | 75 | 155 | 3.5 | 7.0 | 0.00 | 0.09 | 0.09 | 85 | 1015.4 |
| 20260903024344 | 75 | 156 | 4.3 | 7.8 | 0.00 | 0.09 | 0.09 | 85 | 1015.3 |
| 20260903023321 | 75 | 155 | 1.7 | 4.3 | 0.00 | 0.09 | 0.09 | 85 | 1015.3 |
| 20260903022322 | 75 | 163 | 2.6 | 7.8 | 0.00 | 0.09 | 0.09 | 85 | 1015.3 |
| 20260903021336 | 75 | 113 | 2.6 | 6.1 | 0.00 | 0.09 | 0.09 | 85 | 1015.4 |
| 20260903020340 | 74 | 132 | 3.5 | 7.0 | 0.00 | 0.09 | 0.09 | 85 | 1015.6 |
| 20260903015316 | 74 | 164 | 3.5 | 7.8 | 0.00 | 0.09 | 0.09 | 86 | 1015.8 |
| 20260903014333 | 74 | 128 | 1.7 | 3.5 | 0.00 | 0.09 | 0.09 | 85 | 1015.8 |
| 20260903013337 | 74 | 163 | 2.6 | 5.2 | 0.00 | 0.09 | 0.09 | 86 | 1015.7 |
| 20260903012319 | 74 | 138 | 1.7 | 3.5 | 0.00 | 0.09 | 0.09 | 86 | 1015.6 |
| 20260903011341 | 74 | 146 | 2.6 | 6.1 | 0.00 | 0.09 | 0.09 | 86 | 1015.7 |
| 20260903010400 | 74 | 92 | 1.7 | 4.3 | 0.00 | 0.09 | 0.09 | 86 | 1015.3 |
| 20260903005321 | 74 | 98 | 0.0 | 1.7 | 0.00 | 0.09 | 0.09 | 85 | 1015.5 |
| 20260903004339 | 74 | 269 | 0.9 | 5.2 | 0.00 | 0.09 | 0.09 | 85 | 1015.5 |
| 20260903003338 | 74 | 234 | 2.6 | 4.3 | 0.00 | 0.09 | 0.09 | 84 | 1015.1 |
| 20260903002359 | 75 | 148 | 0.9 | 1.7 | 0.00 | 0.09 | 0.09 | 84 | 1015.4 |
| 20260903001314 | 75 | 117 | 0.9 | 2.6 | 0.00 | 0.09 | 0.09 | 84 | 1015.8 |
| 20260903000317 | 75 | 207 | 0.9 | 3.5 | 0.00 | 0.09 | 0.09 | 83 | 1016.0 |
| 20260902235321 | 76 | 170 | 0.9 | 1.7 | 0.00 | 0.09 | 0.09 | 82 | 1016.0 |
| 20260902234329 | 76 | 170 | 0.0 | 3.5 | 0.00 | 0.09 | 0.09 | 81 | 1016.1 |
| 20260902233324 | 77 | 171 | 3.5 | 5.2 | 0.00 | 0.09 | 0.09 | 79 | 1016.0 |
| 20260902232336 | 78 | 109 | 1.7 | 6.1 | 0.00 | 0.09 | 0.09 | 78 | 1016.4 |
| 20260902231333 | 78 | 194 | 2.6 | 5.2 | 0.00 | 0.09 | 0.09 | 76 | 1016.5 |
| 20260902230401 | 79 | 169 | 0.9 | 2.6 | 0.00 | 0.09 | 0.09 | 75 | 1016.2 |
| 20260902225316 | 80 | 162 | 3.5 | 7.0 | 0.00 | 0.09 | 0.09 | 73 | 1016.1 |
| 20260902224328 | 80 | 198 | 3.5 | 7.0 | 0.00 | 0.09 | 0.09 | 73 | 1015.8 |
| 20260902223325 | 80 | 212 | 2.6 | 10.4 | 0.00 | 0.09 | 0.09 | 73 | 1015.7 |
| 20260902222334 | 80 | 137 | 5.2 | 13.9 | 0.00 | 0.09 | 0.09 | 74 | 1015.7 |
| 20260902221315 | 81 | 119 | 5.2 | 13.0 | 0.00 | 0.09 | 0.09 | 74 | 1015.6 |
| 20260902220340 | 82 | 151 | 6.1 | 10.4 | 0.00 | 0.09 | 0.09 | 73 | 1015.5 |
| 20260902215333 | 82 | 108 | 5.2 | 11.3 | 0.00 | 0.09 | 0.09 | 73 | 1015.7 |
| 20260902214336 | 83 | 215 | 4.3 | 8.7 | 0.00 | 0.09 | 0.09 | 73 | 1016.0 |
| 20260902213326 | 83 | 146 | 3.5 | 9.6 | 0.00 | 0.09 | 0.09 | 73 | 1016.2 |
| 20260902212354 | 84 | 108 | 5.2 | 8.7 | 0.00 | 0.09 | 0.09 | 72 | 1016.0 |
| 20260902211314 | 84 | 121 | 4.3 | 7.8 | 0.00 | 0.09 | 0.09 | 72 | 1016.0 |
| 20260902210318 | 85 | 132 | 2.6 | 6.1 | 0.00 | 0.09 | 0.09 | 70 | 1016.0 |
| 20260902205317 | 85 | 162 | 2.6 | 5.2 | 0.00 | 0.09 | 0.09 | 70 | 1016.2 |
| 20260902204331 | 84 | 103 | 0.9 | 5.2 | 0.00 | 0.09 | 0.09 | 70 | 1015.9 |
| 20260902203336 | 84 | 159 | 2.6 | 4.3 | 0.00 | 0.09 | 0.09 | 73 | 1016.0 |
| 20260902202314 | 84 | 248 | 2.6 | 4.3 | 0.00 | 0.09 | 0.09 | 73 | 1016.1 |
| 20260902201336 | 83 | 351 | 0.9 | 2.6 | 0.00 | 0.09 | 0.09 | 76 | 1016.2 |
| 20260902200335 | 83 | 276 | 1.7 | 3.5 | 0.00 | 0.09 | 0.09 | 73 | 1016.4 |
| 20260902195334 | 82 | 112 | 1.7 | 4.3 | 0.00 | 0.09 | 0.09 | 75 | 1016.2 |
| 20260902194333 | 81 | 211 | 1.7 | 5.2 | 0.00 | 0.09 | 0.09 | 76 | 1016.2 |
| 20260902193332 | 80 | 201 | 0.9 | 4.3 | 0.00 | 0.09 | 0.09 | 79 | 1016.1 |
| 20260902192316 | 78 | 195 | 0.9 | 4.3 | 0.00 | 0.09 | 0.09 | 82 | 1016.2 |
| 20260902191316 | 78 | 120 | 2.6 | 7.0 | 0.00 | 0.09 | 0.09 | 83 | 1016.3 |
| 20260902190314 | 78 | 97 | 0.9 | 3.5 | 0.00 | 0.09 | 0.09 | 83 | 1016.6 |